Theta_e
319 320 320 321 322 322 322 322 323 323 323 323 323 324 324 324 324 324 324 325 326 327 327 326 326 325 326 325 325 324 321 311 309 306 304 305 314 321 320 323 323 323 324 313 311 309 304 307 304 304 302 301 309 304 304 304 306 308 298 293 293 293 290 294 292 293 295 293 295 296 297 295 294 296 299 304 300 298 297 295 296 297 296 297 297 297 297 297
319 320 320 320 322 322 321 322 323 323 323 324 324 324 324 324 324 324 325 325 326 326 325 326 325 325 324 325 324 323 316 309 306 307 304 312 318 321 321 322 321 324 320 310 306 304 303 302 302 304 300 300 305 303 301 305 305 301 296 296 291 293 294 297 296 296 294 293 295 296 297 296 295 296 298 296 294 295 293 294 294 293 294 295 296 295 295 295
318 319 320 320 321 321 322 321 322 323 323 324 325 323 324 323 324 325 324 325 324 325 325 325 326 324 325 324 324 322 318 308 306 302 306 322 321 324 322 322 321 323 314 309 308 306 304 303 303 301 300 299 300 301 303 303 300 304 297 294 293 296 295 297 297 295 297 296 294 295 297 297 296 297 300 295 293 292 289 290 291 290 290 291 293 294 294 293
318 319 320 320 321 321 321 321 322 323 323 324 324 324 324 324 325 325 326 325 325 325 326 325 325 325 324 323 322 320 313 309 299 303 308 320 321 325 324 320 322 320 314 313 311 306 306 305 305 303 306 300 301 302 301 304 303 301 299 293 294 295 295 295 297 296 296 297 295 296 300 296 296 297 297 296 291 290 290 292 291 289 290 291 292 293 293 292
318 319 319 320 320 320 321 321 322 322 323 323 323 324 324 324 325 325 326 325 325 326 324 324 326 325 323 323 321 313 309 301 298 306 311 319 321 321 322 324 322 319 312 311 309 307 306 304 303 305 307 301 306 304 298 301 300 304 295 296 295 296 293 295 297 296 295 296 296 296 295 295 297 296 295 294 289 287 290 292 293 292 291 291 291 292 292 291
318 319 319 319 320 320 320 321 322 323 322 323 324 324 324 324 325 325 326 326 327 327 326 325 325 324 322 319 319 316 309 289 304 304 319 318 319 320 321 320 320 319 315 311 308 306 304 304 302 303 303 301 298 298 299 299 303 296 296 295 295 295 293 296 296 295 295 295 295 296 297 296 294 292 294 292 290 291 294 294 293 293 293 293 292 292 291 290
318 318 319 319 320 319 320 320 321 322 323 324 323 323 323 323 325 325 325 326 326 326 327 325 324 322 321 316 324 311 301 299 305 308 317 319 318 320 320 319 321 316 317 309 307 305 304 303 301 305 305 300 300 297 299 301 303 301 293 294 294 295 294 295 295 295 295 295 295 297 299 294 293 289 293 291 293 294 294 294 294 294 294 293 291 291 290 290
318 319 319 319 319 319 319 320 321 322 322 322 323 324 324 325 324 324 324 324 325 325 326 324 323 322 319 325 317 303 299 298 305 309 314 317 312 312 314 316 317 313 307 304 304 303 304 301 300 303 299 299 303 299 303 299 301 299 296 297 295 295 295 295 295 295 296 296 297 297 294 292 293 291 292 290 292 293 293 294 293 293 292 291 290 290 290 290
318 319 319 318 318 319 319 320 321 320 321 322 324 324 324 324 323 323 324 324 325 326 324 323 322 321 318 315 307 302 296 304 308 309 310 309 308 309 310 309 310 309 304 305 305 304 304 303 304 300 299 301 301 302 302 299 295 299 298 301 295 293 295 295 296 296 295 296 296 294 292 293 293 294 290 291 292 293 293 292 292 291 290 290 289 290 289 289
319 319 318 317 318 318 320 320 320 321 321 322 323 323 325 323 322 322 325 325 325 325 325 323 323 317 312 312 312 296 300 308 309 308 309 308 308 309 309 309 309 306 303 303 304 303 301 301 301 303 303 298 301 299 301 300 295 303 301 301 295 294 295 295 293 294 296 295 295 294 292 292 294 293 285 292 293 293 292 291 291 290 289 289 290 290 289 289
319 318 318 318 318 319 320 320 320 321 321 321 323 324 324 323 322 324 323 325 325 326 325 322 322 316 307 305 299 294 306 307 309 308 308 309 307 306 306 308 309 305 303 303 303 304 304 304 304 305 309 299 300 296 299 297 303 302 301 300 299 294 295 294 294 293 295 292 294 296 292 293 293 292 288 291 293 293 291 291 290 289 288 288 289 289 289 289
318 318 318 318 319 320 320 319 320 320 321 322 322 323 323 322 322 323 324 324 324 324 324 322 319 314 308 301 297 297 307 307 309 307 309 309 307 307 308 309 309 306 303 301 303 305 305 307 310 309 299 302 295 298 297 304 303 299 300 293 295 296 294 293 291 293 295 291 295 296 292 289 291 288 291 293 294 293 291 290 290 289 288 288 288 288 288 288
318 318 317 318 319 319 320 319 320 321 320 321 322 322 322 321 321 322 323 324 324 322 322 320 318 315 315 298 298 306 310 310 310 307 308 309 310 310 310 308 308 308 306 303 302 305 310 308 306 304 308 303 303 295 300 301 301 303 299 297 294 293 292 293 294 293 293 294 296 297 282 285 287 290 292 294 293 292 290 289 289 288 288 288 288 287 288 288
317 317 317 319 319 319 320 320 320 320 321 322 322 321 321 321 321 321 323 324 321 322 322 322 319 319 305 297 303 306 310 316 309 306 306 309 308 308 308 306 306 306 306 304 305 306 306 307 307 306 309 301 298 303 300 301 302 292 300 298 284 283 285 293 293 291 293 294 295 297 281 284 287 290 293 294 294 292 288 288 288 288 288 287 288 288 287 288
317 317 318 319 319 319 319 320 320 320 320 321 321 321 321 321 319 319 321 322 324 323 321 321 322 319 305 304 306 308 315 309 304 304 307 306 304 305 304 306 305 305 305 304 304 304 305 311 311 306 301 307 304 300 299 297 295 291 288 282 285 281 285 292 295 291 287 292 295 295 281 285 287 289 292 293 293 291 288 287 287 287 287 287 287 287 286 287
317 318 319 319 318 319 318 318 318 318 320 321 320 320 321 321 322 321 319 320 321 319 321 328 318 308 299 295 300 313 306 301 301 305 307 307 305 302 304 305 305 305 306 305 305 304 308 304 303 303 301 306 301 293 291 288 287 289 283 280 279 282 283 288 295 296 293 294 296 294 285 285 286 289 291 292 291 290 288 287 287 287 287 287 286 287 286 287
318 318 319 319 318 318 319 318 317 319 319 319 319 322 321 320 321 322 321 318 325 324 311 309 311 312 295 305 307 300 298 302 305 304 305 307 306 304 303 303 303 303 304 305 304 305 305 300 307 302 300 293 293 293 287 282 280 282 285 281 283 280 283 280 292 296 293 292 286 292 287 286 287 288 289 291 291 289 287 286 287 286 286 287 287 286 286 286
318 318 318 318 319 318 319 318 318 318 319 319 318 321 325 321 321 321 319 320 323 320 320 316 312 307 297 302 294 296 302 301 302 302 304 306 308 304 303 301 303 302 302 301 303 301 301 297 299 290 291 291 291 289 281 276 279 281 281 281 282 284 283 283 283 292 291 291 287 287 287 286 286 288 288 289 290 288 286 286 286 286 286 286 286 286 286 285
318 318 318 318 318 318 318 318 318 319 318 318 320 319 318 320 332 311 309 308 308 305 301 299 300 291 288 295 300 300 301 303 303 302 301 303 304 305 305 304 302 301 301 299 299 299 300 297 298 289 284 286 287 287 284 285 289 286 287 283 284 278 280 281 286 295 291 285 284 285 285 286 286 286 287 288 289 287 286 286 286 286 285 286 285 285 285 285
318 318 318 317 317 317 317 318 318 318 317 321 328 328 322 317 310 304 307 305 300 300 303 305 302 306 301 298 297 301 305 305 299 300 301 303 301 303 302 304 308 303 300 295 301 296 300 287 284 283 283 287 289 291 290 291 291 289 288 284 281 280 282 286 286 293 293 286 284 284 287 286 286 286 287 287 287 286 286 285 285 286 285 285 284 285 285 285
317 317 317 317 318 317 317 318 318 318 316 324 328 321 309 308 306 295 301 301 307 308 305 308 309 301 296 299 300 299 296 300 300 298 300 303 304 303 300 303 303 297 297 301 297 301 296 286 283 288 288 288 289 292 293 292 292 291 286 281 278 282 279 285 285 293 295 287 283 286 286 286 286 287 287 287 286 285 285 284 284 284 284 285 284 285 285 285
317 317 316 317 317 317 318 318 317 318 317 324 321 310 309 308 313 313 312 296 307 307 306 302 301 298 302 302 301 301 300 295 297 297 301 302 302 299 301 299 296 292 296 300 299 292 286 283 287 290 290 291 292 293 293 291 287 288 284 279 277 279 283 285 289 293 293 288 284 287 285 286 287 287 287 286 285 285 285 285 284 284 284 284 284 284 285 284
316 316 317 317 316 318 318 317 318 317 327 323 317 312 309 312 314 318 315 302 300 308 307 306 298 297 297 301 301 303 295 292 293 295 297 300 301 298 300 296 295 296 294 293 288 286 283 286 289 292 291 291 292 294 290 288 290 285 281 278 276 281 279 277 284 288 288 286 282 284 282 286 287 286 285 286 286 285 286 287 287 287 284 284 284 284 284 284
316 316 316 316 318 317 317 317 316 322 317 315 312 311 314 312 313 317 316 302 298 304 308 305 306 300 298 295 301 299 295 295 296 292 301 298 295 300 299 295 295 294 292 293 290 287 285 291 292 292 292 291 290 291 286 284 283 286 284 280 278 279 281 280 281 285 287 287 287 285 281 282 283 282 283 285 286 285 285 285 285 285 287 286 287 286 286 284
315 316 316 318 317 317 317 317 315 315 318 320 313 313 312 314 313 316 313 303 303 301 309 308 309 298 297 302 303 302 301 300 297 299 300 298 295 300 298 301 299 289 294 295 294 290 289 293 294 292 290 293 290 287 287 284 280 282 283 283 282 282 281 283 284 283 280 278 284 285 273 275 281 283 283 283 283 283 284 283 284 285 285 286 284 284 285 286
315 316 316 317 316 316 316 319 319 324 324 311 313 312 315 315 315 314 309 297 287 294 308 297 303 297 304 299 301 307 304 295 300 298 304 300 301 300 300 294 298 291 295 293 287 289 291 295 294 291 291 291 288 287 288 286 279 278 280 285 284 282 282 282 282 280 275 272 281 285 275 271 279 279 283 281 281 282 283 283 284 284 284 283 283 284 284 283
315 315 316 317 316 316 324 315 321 324 319 316 314 314 313 316 317 314 308 291 285 294 294 305 303 301 308 301 301 304 288 292 299 301 301 304 300 306 298 292 299 298 297 294 290 283 293 293 290 290 290 286 283 282 287 285 281 277 284 285 284 282 281 282 280 280 278 282 284 285 281 274 273 279 281 281 281 281 281 283 283 284 284 283 283 283 282 282
316 316 316 316 315 315 323 321 322 316 311 313 311 312 312 314 318 315 299 280 276 300 294 297 303 307 303 302 301 294 293 297 295 296 302 305 302 303 298 291 290 290 295 292 280 286 291 289 288 288 288 283 282 285 287 288 280 281 285 286 284 284 284 284 281 280 280 277 276 278 281 273 272 277 280 281 279 280 280 281 283 283 283 283 282 282 281 281
315 315 315 315 315 314 322 323 323 316 310 310 312 313 317 317 311 308 292 279 291 296 308 295 311 301 298 303 298 299 299 300 292 297 303 306 301 301 292 294 295 293 296 294 283 284 292 291 291 290 286 281 286 285 286 287 283 287 287 288 287 286 285 285 281 279 277 275 271 276 278 271 272 278 279 278 279 278 278 281 282 282 282 281 281 280 281 281
314 315 316 314 318 329 324 319 308 312 310 312 313 315 316 312 309 292 284 275 297 286 300 301 297 291 297 296 296 295 294 296 299 299 303 298 297 300 296 297 296 293 287 294 289 289 291 295 294 292 285 287 285 287 287 287 289 290 289 286 282 281 280 282 282 279 276 271 272 276 278 276 269 275 277 276 276 274 278 280 281 282 281 281 281 280 280 280
313 314 315 314 319 317 312 313 311 310 311 313 313 311 314 311 293 286 275 284 298 297 302 297 293 299 292 290 288 293 295 295 294 296 293 299 294 295 294 293 296 290 286 285 283 289 291 292 291 290 294 291 289 287 291 289 289 288 283 280 279 278 279 276 276 277 270 269 275 276 277 278 267 272 277 277 276 276 277 277 279 279 279 280 280 280 280 279
310 311 313 314 314 320 314 317 311 313 312 312 313 315 309 291 289 283 281 303 287 289 288 286 294 291 291 292 290 287 286 293 293 293 290 289 287 287 286 282 283 281 282 280 281 286 284 284 287 290 290 289 288 284 289 288 288 285 281 279 273 271 272 268 272 268 269 268 273 277 277 273 274 274 278 279 279 280 278 281 280 279 279 279 279 279 279 279
312 308 310 310 312 310 311 312 311 311 311 310 315 312 299 288 275 284 284 286 283 291 289 292 291 291 288 290 287 288 291 284 291 292 292 293 289 286 289 287 286 283 276 282 282 280 282 286 288 288 289 290 288 279 277 277 282 281 277 275 271 267 266 264 267 270 270 274 276 276 277 272 275 276 279 279 281 282 281 281 281 279 278 279 278 279 279 279
311 312 313 309 309 309 310 311 311 311 311 314 311 306 289 282 277 286 282 286 287 294 293 290 290 291 291 284 286 287 283 288 288 288 291 287 287 283 285 288 287 284 282 282 277 276 275 276 283 285 280 287 286 282 282 280 280 278 282 277 272 270 266 262 266 264 266 269 274 277 270 268 270 274 281 282 282 283 283 282 280 280 280 279 279 279 279 278
309 314 314 314 315 313 311 310 311 311 312 312 309 294 283 280 283 283 284 286 290 292 292 290 289 288 288 287 289 288 285 282 289 287 285 284 281 281 281 282 286 285 284 280 278 277 280 279 285 289 286 287 285 288 288 284 282 280 281 280 273 270 275 268 270 269 269 269 269 271 270 272 273 281 283 282 282 282 282 281 280 279 279 278 278 278 278 278
314 319 323 315 313 314 312 310 311 310 314 312 297 286 283 283 283 288 287 291 290 287 287 291 290 286 285 285 285 284 291 283 284 284 283 284 284 282 286 284 283 286 279 278 278 275 277 276 285 288 286 281 284 287 285 286 271 278 279 273 275 279 275 271 274 276 273 271 268 272 273 276 279 279 280 282 281 281 282 280 279 278 278 278 277 277 277 278
320 322 315 315 312 315 312 312 310 312 312 308 291 283 286 287 288 288 290 288 289 288 286 283 283 282 281 282 284 281 283 287 282 282 282 284 282 284 284 285 288 285 285 280 280 279 274 276 284 286 283 284 286 286 288 287 285 279 274 276 281 282 278 272 266 267 267 264 267 271 269 270 271 268 280 279 278 279 278 278 278 277 277 276 276 276 277 277
318 313 314 310 310 317 315 311 313 312 311 294 284 287 290 288 291 291 291 289 289 289 285 284 284 287 281 281 281 279 282 282 284 282 282 284 280 285 284 283 288 286 285 284 279 280 280 274 281 284 285 285 287 286 283 286 286 279 277 283 273 266 268 272 269 263 263 262 265 269 270 271 272 272 276 275 276 276 276 276 276 276 276 275 276 276 277 277
317 315 308 310 317 318 317 312 311 312 309 290 286 287 289 289 291 289 291 291 289 286 285 283 283 284 282 282 279 281 280 280 280 281 281 282 279 286 283 284 285 287 287 287 281 282 283 273 278 283 282 284 283 281 275 278 283 284 283 279 281 275 271 267 269 268 269 265 264 265 268 266 273 272 275 276 276 276 275 275 275 275 275 275 275 276 276 276
315 312 305 316 315 320 316 315 313 299 294 287 286 285 292 289 290 291 290 290 287 287 282 282 286 283 284 282 280 281 282 281 280 281 283 284 282 285 283 286 282 284 286 287 284 286 279 282 271 280 285 283 277 279 275 276 274 276 276 275 275 274 276 275 272 268 266 263 264 264 262 267 274 278 277 276 276 276 275 274 275 275 275 275 276 276 276 276
310 309 306 316 313 317 320 308 296 290 288 287 290 289 290 289 291 291 294 292 292 293 284 285 284 283 284 282 282 285 282 282 283 282 282 282 280 280 282 281 283 282 284 283 283 282 277 278 275 279 278 277 278 280 279 278 279 277 275 273 273 271 267 266 265 273 267 265 263 263 262 269 276 281 279 277 277 277 276 276 274 275 275 275 276 276 276 276
310 295 300 312 315 313 312 293 290 292 290 286 286 292 289 292 292 289 289 290 289 286 290 286 286 287 286 286 286 284 283 282 284 282 283 280 285 283 284 284 284 283 280 279 280 283 280 279 275 274 277 278 279 280 281 282 281 279 277 275 275 274 272 270 264 266 269 269 269 268 265 268 278 278 278 278 278 277 277 276 274 275 275 275 276 276 276 276
304 300 311 313 317 314 301 290 291 289 286 288 292 291 292 291 288 287 289 290 288 291 288 289 288 287 288 286 286 285 284 281 284 281 284 283 282 282 285 286 285 284 282 281 284 281 283 276 274 277 279 279 279 280 281 280 281 278 278 277 275 272 273 271 270 271 267 267 266 267 265 269 277 277 279 278 278 277 277 276 274 275 275 275 275 275 275 275
304 303 307 312 316 310 304 288 286 285 286 292 291 288 293 293 292 290 289 290 288 284 287 288 289 289 287 288 286 284 286 279 284 282 282 282 281 284 285 287 284 282 283 280 277 282 275 277 276 273 272 273 276 276 277 277 278 276 274 275 276 275 274 274 272 270 266 267 269 266 261 266 275 279 279 278 276 276 275 275 275 274 274 275 275 275 275 275
301 307 305 304 305 305 293 295 289 287 286 287 287 287 290 290 291 290 291 289 290 286 285 286 288 288 288 287 286 287 286 283 280 280 278 280 280 284 285 285 283 282 285 284 284 282 278 278 275 269 266 265 265 266 268 271 274 276 276 275 275 272 271 270 267 268 265 268 269 266 265 271 275 277 276 276 275 274 275 275 275 275 274 274 274 274 274 275
301 290 300 298 300 299 296 296 294 289 287 285 284 286 288 287 290 292 292 290 288 289 286 288 288 284 286 287 286 286 285 284 280 279 278 280 281 284 285 285 285 284 283 283 280 281 278 279 277 274 270 269 272 274 278 279 276 273 274 274 272 273 274 273 272 269 266 268 266 268 269 270 271 273 273 273 274 273 272 273 273 273 274 274 274 274 275 275
299 291 291 291 299 294 290 294 293 292 288 291 285 286 283 286 289 290 293 287 289 288 289 289 289 286 286 286 285 284 286 284 283 278 276 276 279 280 284 286 285 284 283 281 281 277 278 275 276 276 273 274 276 276 277 278 275 276 275 273 273 272 271 268 267 266 272 268 264 271 272 268 269 271 272 272 273 273 273 273 273 273 273 274 274 274 276 274
293 291 294 293 295 289 290 288 293 291 293 292 284 289 287 287 287 283 290 288 288 287 287 287 288 288 287 284 285 281 284 283 283 279 278 275 279 280 280 283 282 285 282 281 280 276 273 272 275 272 271 275 276 276 277 277 276 276 276 275 272 273 271 268 268 272 272 268 265 270 271 268 270 272 272 273 273 272 272 273 273 274 274 274 273 273 273 273
297 293 293 295 291 284 288 290 292 294 291 289 286 289 286 287 286 288 289 287 288 286 287 282 287 287 287 287 285 281 283 276 278 280 276 279 279 279 279 281 283 282 281 279 278 276 274 275 275 273 273 275 276 277 278 276 276 275 275 275 275 274 272 272 272 274 273 270 271 271 270 269 271 272 273 273 274 273 273 274 274 273 273 273 273 273 272 272
291 293 289 295 290 285 285 285 289 294 288 288 285 288 290 289 287 289 288 288 284 287 288 287 288 287 287 287 286 281 282 283 279 277 279 278 278 278 279 279 279 280 281 278 278 278 275 273 276 273 270 273 276 277 276 275 274 273 274 274 275 275 274 274 272 272 272 270 271 270 269 268 273 274 273 274 274 274 273 272 272 272 272 273 272 272 271 271
298 298 298 293 288 286 286 287 290 291 289 290 288 288 290 289 289 290 288 290 289 288 288 287 288 287 287 286 286 285 287 284 284 283 283 279 277 282 278 278 281 279 279 279 278 277 275 273 273 272 270 271 275 274 275 275 274 271 272 273 274 274 270 270 267 271 269 268 269 268 266 267 272 274 273 273 273 272 271 271 271 272 273 272 271 271 270 270
298 298 301 302 287 287 287 288 287 291 287 288 290 290 290 289 289 290 286 290 290 291 290 288 288 286 286 285 283 286 286 285 286 286 284 284 283 284 283 283 282 279 280 278 275 275 274 272 272 272 269 269 275 275 274 274 272 268 269 273 274 274 272 272 272 272 272 271 267 265 266 271 272 273 271 271 271 271 271 271 271 272 273 272 271 270 270 270
Wind_Speed
9 9 10 10 10 10 10 10 10 11 11 11 10 10 9 8 8 8 8 7 7 8 7 7 7 8 9 11 13 8 10 6 5 10 11 3 5 10 12 10 11 13 10 8 11 9 8 9 8 4 4 4 1 1 2 2 1 2 2 3 2 3 6 3 5 3 3 4 5 6 6 5 4 7 3 3 12 11 11 12 9 13 14 12 11 11 12 13
9 9 9 10 10 10 10 10 11 11 11 11 10 9 9 9 9 8 7 7 7 8 8 6 6 8 8 10 11 11 7 7 4 10 7 1 7 8 10 10 11 10 9 7 7 9 9 5 4 1 4 3 2 0 1 1 1 2 3 3 4 3 1 3 3 4 3 4 6 4 5 4 7 5 4 5 9 9 11 10 8 10 12 12 12 12 13 14
8 9 9 10 10 10 10 10 11 11 11 10 9 9 9 9 8 8 7 7 7 7 8 6 5 6 9 8 8 8 5 7 5 12 8 4 15 9 9 9 9 7 4 6 7 8 7 7 5 4 5 2 1 2 2 1 3 1 2 2 2 3 5 5 6 5 4 5 6 5 4 6 6 6 5 8 10 13 12 6 6 8 10 12 10 11 10 13
8 9 10 10 9 9 9 10 11 11 10 10 9 9 8 8 8 8 7 7 7 8 8 7 5 4 7 8 6 6 3 6 8 8 12 16 16 10 8 9 8 7 6 7 8 8 6 6 6 6 1 2 2 2 2 2 1 3 2 3 2 3 1 6 5 6 4 4 5 4 1 7 10 7 7 9 13 10 8 7 7 8 9 9 9 9 9 11
9 9 9 9 9 9 9 10 11 11 10 9 8 8 8 8 8 7 7 8 7 7 9 9 6 6 4 6 5 4 0 3 6 9 12 16 14 13 10 8 8 4 5 7 8 8 8 6 4 2 2 2 1 2 3 1 2 1 3 3 4 4 4 6 6 6 5 5 3 3 4 6 9 12 11 11 10 4 4 6 6 7 8 8 9 9 9 11
9 9 9 9 9 9 10 11 11 11 10 9 8 8 8 8 8 8 8 8 8 7 8 10 9 7 7 4 4 1 3 3 5 11 11 14 13 14 11 9 8 4 5 6 6 5 6 6 3 3 0 2 3 3 2 2 2 1 2 4 4 5 5 4 6 5 4 6 5 2 5 9 10 9 10 12 11 8 8 7 7 7 7 7 7 6 9 10
8 8 8 9 9 9 10 11 11 11 10 9 8 8 8 8 7 8 8 8 9 7 7 8 9 9 5 6 1 3 8 5 8 11 13 12 14 12 12 8 7 5 7 5 7 6 4 4 6 3 1 3 3 2 3 1 1 2 3 2 5 5 6 4 5 3 1 5 4 3 4 7 9 10 6 11 9 8 7 7 6 6 6 5 7 8 9 9
8 8 8 9 9 10 11 11 11 10 9 9 8 8 8 8 8 8 8 9 9 9 7 7 8 7 4 2 2 2 9 9 11 11 12 13 12 11 12 4 4 7 6 7 9 6 5 8 7 4 3 2 1 3 1 4 7 2 3 2 2 1 2 2 1 0 1 1 1 2 7 9 9 10 8 11 10 9 9 7 7 6 6 6 7 7 8 9
7 7 8 8 9 10 11 10 10 8 8 8 8 9 9 8 8 8 8 8 9 9 11 8 5 4 3 2 4 3 7 8 9 11 12 11 11 9 8 8 11 11 7 8 7 9 4 3 2 5 2 2 4 3 2 3 2 4 4 1 1 2 2 0 5 2 0 0 3 8 7 8 11 12 9 10 10 9 9 8 7 6 6 6 7 7 7 7
7 8 9 10 11 10 10 9 8 8 8 8 9 9 9 9 9 8 7 8 8 9 10 12 8 4 2 5 2 4 5 9 7 8 9 8 9 9 9 10 12 8 9 9 9 10 9 6 9 4 4 5 4 3 4 3 1 2 2 0 2 1 1 1 3 3 0 3 6 6 7 9 8 5 5 6 8 8 7 8 7 7 7 7 5 5 5 6
8 9 9 9 9 9 9 8 8 8 9 10 9 9 9 8 8 7 8 7 8 7 8 12 12 10 6 13 9 7 5 7 5 7 9 7 7 9 9 9 10 10 9 8 10 9 7 7 6 4 2 1 2 4 4 1 2 2 1 1 1 2 2 2 3 4 3 2 4 2 6 5 6 6 6 7 7 7 6 6 6 6 5 5 6 6 4 5
8 8 8 9 9 8 8 8 8 8 9 9 9 9 9 8 8 7 7 8 8 8 7 7 11 4 6 11 11 5 7 4 5 6 6 6 4 5 6 6 7 9 9 9 9 7 6 4 3 4 1 4 1 2 3 3 1 3 3 2 3 3 2 2 3 3 1 2 2 2 7 4 2 4 6 7 7 6 6 6 5 5 4 4 4 4 4 4
8 8 8 9 8 8 8 9 8 10 10 10 9 9 8 8 7 7 7 6 2 6 7 7 7 3 1 7 6 2 2 2 3 7 7 7 3 0 1 4 5 6 7 7 7 6 4 5 3 4 2 2 2 0 1 2 2 1 1 2 4 3 1 1 2 3 7 1 1 3 2 3 3 4 5 7 5 6 5 4 3 3 3 3 3 3 4 4
8 8 9 8 8 9 9 9 9 10 10 9 8 9 8 7 6 6 5 5 6 6 6 6 3 3 5 5 2 1 1 1 4 9 10 9 8 2 2 3 5 4 4 4 2 2 4 4 4 3 1 4 1 0 1 1 1 2 2 2 2 2 0 1 3 4 3 4 5 4 2 2 5 4 2 2 5 5 4 3 3 3 3 3 3 3 3 5
8 8 9 9 9 9 9 9 10 10 10 10 9 8 7 7 5 6 5 4 6 5 6 5 3 2 2 1 5 2 3 4 9 10 5 9 11 3 7 3 4 3 2 3 1 3 3 4 2 1 1 2 3 1 2 3 2 6 2 2 2 4 4 4 2 4 3 1 5 4 3 2 5 4 2 2 2 3 3 3 3 2 3 3 2 3 3 4
8 9 8 9 9 9 10 10 10 10 10 10 11 9 6 5 6 6 4 4 7 4 3 2 3 3 7 4 5 4 4 11 12 8 4 5 7 7 7 6 5 3 1 0 2 2 2 3 3 1 3 0 1 3 2 3 4 4 4 2 3 5 5 1 2 3 3 1 3 3 3 4 3 4 3 3 3 3 3 3 3 3 2 2 2 2 3 3
8 8 9 9 9 9 9 10 10 10 10 11 11 9 5 5 6 7 7 4 4 3 4 4 6 2 3 2 4 9 11 8 6 5 6 3 3 6 7 7 2 3 3 3 5 2 3 3 2 1 5 6 5 3 2 5 4 4 4 3 3 4 6 3 3 2 4 4 3 2 3 1 4 5 4 2 3 4 3 3 3 2 1 2 2 2 2 3
8 9 10 10 10 10 9 10 11 11 10 10 6 7 6 6 8 2 4 3 1 2 1 4 2 1 5 9 8 11 8 6 6 8 5 5 1 5 4 4 2 4 5 4 5 2 4 2 3 3 5 10 12 9 5 1 3 4 4 4 4 5 4 6 5 3 6 3 2 4 4 4 6 5 4 4 3 3 3 3 2 2 2 2 2 2 3 3
9 10 10 10 10 10 10 9 10 10 10 8 5 5 9 7 3 10 9 7 6 3 3 7 7 4 1 7 6 8 7 6 6 6 10 9 6 7 6 8 9 5 2 2 2 5 3 3 3 5 10 9 8 6 3 1 3 4 4 3 4 4 5 6 8 2 4 4 7 7 5 5 5 6 5 4 4 3 3 3 1 2 2 2 2 3 3 3
10 10 10 11 11 11 11 11 10 9 7 3 2 1 1 1 1 3 7 13 12 7 4 3 4 3 2 6 8 9 9 9 4 9 11 8 9 8 7 2 3 3 3 1 2 5 3 9 6 4 3 5 6 4 3 4 4 5 4 3 4 5 5 7 10 0 1 2 5 4 6 2 6 7 7 6 3 3 3 3 1 1 1 1 2 3 3 4
10 10 10 10 10 11 11 11 11 9 3 3 2 1 2 2 1 4 3 6 2 3 3 1 1 3 3 4 6 9 8 3 8 10 11 13 5 3 4 5 1 3 2 1 2 2 5 10 5 4 5 5 4 3 2 3 3 4 5 3 4 4 7 10 13 1 0 2 6 6 8 5 4 6 6 5 4 4 4 3 2 2 2 1 2 2 2 2
9 10 10 9 10 11 12 11 11 12 3 2 3 2 2 2 1 2 1 3 2 3 4 5 5 5 1 2 4 7 4 4 8 15 12 15 6 2 5 3 4 5 5 1 1 4 9 6 4 5 4 4 4 3 3 3 4 4 4 2 3 5 9 10 3 1 1 1 9 7 8 5 6 6 5 6 4 3 2 2 3 2 2 2 2 2 2 4
9 9 9 9 9 10 11 11 11 11 3 3 2 3 2 1 3 1 1 5 3 3 1 2 6 6 6 2 4 9 7 9 4 10 13 13 4 7 4 3 4 4 8 9 5 3 4 3 5 3 2 3 4 1 4 6 3 4 2 4 4 5 7 10 7 4 8 5 8 9 7 8 1 4 4 4 4 3 3 3 2 1 1 2 2 1 2 4
9 9 9 9 9 9 10 11 10 4 5 5 6 3 2 2 3 2 1 1 2 1 1 0 1 3 4 5 3 6 6 4 5 11 9 8 5 4 2 4 3 5 5 6 9 7 4 1 3 3 4 4 4 1 7 6 7 2 3 2 5 9 9 5 12 11 9 12 7 6 4 6 5 3 4 4 4 4 4 3 4 3 2 3 1 2 1 3
9 8 9 9 9 9 9 8 2 1 2 2 3 2 2 1 2 1 0 1 0 1 1 1 3 3 2 3 4 2 1 2 4 3 5 7 8 3 1 1 1 2 3 3 4 6 3 1 2 4 4 2 4 2 4 4 4 3 2 4 7 12 12 12 10 9 6 5 1 3 1 3 5 11 6 6 4 4 4 4 3 1 1 0 2 3 4 4
8 9 8 9 10 10 7 1 1 1 1 2 2 2 2 1 2 3 1 1 1 3 1 3 1 3 1 5 7 2 1 2 2 6 4 4 2 0 2 1 2 2 2 3 3 2 0 1 2 3 5 4 3 2 1 3 3 4 3 9 12 13 10 12 10 3 5 4 1 2 3 5 2 4 8 7 5 6 3 4 2 2 1 3 4 4 4 7
8 9 9 10 10 8 1 1 1 0 1 2 3 3 2 1 2 2 1 1 2 3 3 3 3 1 2 4 7 3 2 2 6 3 7 5 2 1 2 3 1 1 2 1 0 0 3 3 6 4 5 4 3 3 3 2 1 3 5 9 12 14 13 13 6 4 6 5 10 5 1 4 5 4 5 6 6 5 5 4 4 2 2 4 4 3 6 8
8 8 9 9 10 7 1 1 1 1 2 2 3 2 2 1 1 2 0 0 2 4 2 3 1 4 3 6 6 5 3 6 1 4 4 4 3 1 2 3 2 2 0 0 0 1 1 1 3 4 3 3 3 2 3 1 1 5 5 8 13 14 15 15 6 6 5 3 7 4 5 3 4 2 5 7 3 6 4 3 2 2 4 3 5 6 6 8
7 7 7 7 9 8 4 2 2 2 2 3 2 2 0 1 1 0 1 0 2 1 4 1 1 1 8 6 6 4 0 3 2 3 6 2 4 1 2 2 3 4 2 3 1 1 1 1 2 1 1 3 4 4 3 2 1 4 5 9 10 14 11 13 5 4 4 1 4 1 5 4 8 10 3 1 0 1 1 3 3 3 3 4 4 4 9 10
6 6 4 4 4 1 2 2 4 1 2 3 2 1 2 1 1 1 0 2 1 1 2 2 3 6 7 4 2 9 7 3 2 5 2 2 9 6 2 1 1 4 2 5 4 4 2 2 0 2 2 2 3 5 3 4 7 6 8 8 9 12 8 1 3 1 1 3 4 7 10 8 10 4 3 3 1 1 1 2 3 4 4 4 4 4 7 7
11 11 9 3 3 1 2 1 1 2 2 2 2 2 2 1 0 1 1 0 1 2 1 3 3 3 6 7 4 7 4 4 6 6 5 4 8 7 8 1 5 2 1 1 1 1 1 1 1 0 0 4 4 5 3 5 4 2 3 8 11 4 5 2 1 2 2 4 4 9 8 9 7 1 2 1 1 2 2 1 3 2 3 4 3 5 7 8
10 13 12 8 1 2 1 1 1 1 2 2 2 1 1 0 2 4 1 0 1 3 2 4 2 2 5 3 3 7 5 5 4 5 7 4 7 11 9 6 5 6 0 4 3 2 1 1 0 1 3 1 3 5 1 2 3 2 6 6 9 7 6 3 3 4 3 4 3 10 13 8 5 1 1 3 3 1 3 2 4 2 4 9 8 10 8 11
5 3 9 7 0 3 2 1 1 1 1 1 1 2 0 0 2 1 0 4 0 2 1 3 3 4 5 3 4 5 1 3 5 4 6 1 5 2 6 10 5 2 2 4 6 4 0 1 2 1 2 2 3 3 4 3 5 4 4 5 6 7 5 6 4 3 5 8 4 8 7 7 6 1 0 3 3 4 4 5 2 4 5 9 9 9 10 12
9 6 2 1 5 2 1 1 1 1 1 1 1 0 3 3 0 2 0 2 1 1 2 1 4 4 1 3 2 4 3 1 3 4 5 2 5 3 3 6 10 7 1 3 2 2 3 2 0 2 1 4 2 2 0 2 3 3 1 4 1 3 1 4 3 4 8 12 12 8 3 1 10 1 0 4 2 3 7 3 3 9 14 11 12 12 12 10
6 4 3 2 2 3 3 1 1 2 1 1 1 0 3 1 1 2 2 3 2 2 1 1 3 2 0 1 1 1 2 1 2 3 4 4 2 2 3 4 6 3 2 1 0 1 1 4 0 1 0 1 1 1 0 2 2 2 1 3 3 2 1 5 3 5 7 11 10 4 3 2 2 2 2 2 2 3 7 10 14 14 12 12 12 12 12 13
5 2 2 2 2 2 3 1 0 1 2 1 2 7 4 1 1 3 0 2 1 1 5 3 1 1 2 2 1 1 5 0 3 2 1 2 0 1 0 1 2 4 2 1 1 2 3 2 3 1 5 2 1 1 0 0 1 3 3 2 4 2 3 4 8 7 8 7 9 1 6 4 5 3 2 3 4 10 11 13 13 15 15 14 13 15 18 18
1 1 1 1 2 2 2 2 0 1 2 2 3 3 1 2 1 1 2 1 0 1 2 2 1 2 2 2 1 4 1 0 2 0 0 2 1 1 1 1 2 2 2 1 1 1 0 9 9 4 2 1 0 1 1 1 0 1 1 2 8 4 4 2 4 5 3 5 10 4 10 9 8 8 4 3 14 12 10 14 17 18 15 15 14 15 17 16
2 1 1 4 4 1 2 3 2 1 0 7 6 6 2 1 1 1 1 1 1 1 1 2 0 2 2 1 2 4 5 0 6 4 1 1 1 0 1 1 2 4 0 1 0 0 1 4 2 1 2 1 1 1 1 3 3 5 4 1 2 3 4 2 2 5 7 8 8 11 10 8 8 9 5 13 11 12 16 18 20 19 16 15 17 20 18 18
2 1 1 4 3 0 2 2 1 2 0 8 2 3 2 2 1 1 2 2 1 0 1 0 0 1 1 2 2 0 3 3 4 2 3 1 2 2 1 2 0 3 1 2 1 2 2 1 3 1 2 4 1 1 1 2 1 3 4 2 1 1 2 3 2 3 2 10 9 15 15 9 3 2 9 11 10 13 17 18 18 17 17 18 18 18 18 17
1 1 1 2 4 1 1 1 1 9 7 6 2 2 0 2 1 1 1 2 1 2 1 1 1 1 1 1 1 3 1 1 1 2 1 1 1 2 3 3 2 6 5 1 2 3 2 1 4 1 7 2 1 1 2 0 1 1 1 1 3 0 2 5 3 3 2 3 6 12 18 4 3 7 7 8 11 15 16 18 16 14 16 18 19 18 17 16
1 0 1 3 7 4 2 4 11 7 6 2 5 3 2 1 2 0 1 4 1 1 0 1 3 2 1 2 1 1 1 3 2 1 1 1 3 2 3 2 3 3 4 1 0 1 2 2 5 8 6 3 2 1 2 2 1 0 1 2 3 0 2 3 6 2 2 1 6 8 18 16 6 4 2 10 13 15 17 16 15 16 21 21 19 18 18 18
2 2 3 5 5 6 1 9 4 3 3 3 1 1 1 3 0 1 0 1 1 0 1 1 1 1 2 1 1 2 2 3 1 1 1 1 1 2 0 2 2 1 2 1 1 2 0 3 3 5 7 4 2 0 4 2 4 3 2 1 3 2 1 1 5 3 3 2 5 9 13 19 6 1 7 11 13 16 16 14 15 19 22 21 21 20 19 19
3 2 2 4 3 1 6 7 3 4 4 1 2 1 1 1 1 1 1 0 1 0 1 0 2 1 2 1 2 1 2 2 1 1 1 1 2 1 1 2 1 3 2 3 1 1 1 1 3 6 4 2 3 1 1 3 2 3 1 2 1 1 3 4 5 2 3 3 5 8 12 15 5 5 9 11 16 16 14 11 17 20 19 19 21 20 20 20
1 2 1 3 3 2 4 4 2 3 3 1 2 1 2 2 2 0 1 2 2 1 1 1 1 2 1 1 1 1 2 2 1 0 0 1 0 1 1 1 3 1 2 1 1 3 2 1 3 7 6 2 1 1 1 1 1 1 2 1 1 3 2 4 3 2 1 3 8 8 17 16 10 12 12 14 16 17 15 14 18 21 19 19 21 19 18 20
1 1 3 4 10 7 5 1 5 5 2 2 1 3 1 1 2 1 1 2 0 0 0 1 0 1 1 1 1 1 1 1 2 1 2 0 0 1 1 1 0 1 3 2 1 2 1 4 2 3 4 8 10 10 11 8 5 3 3 2 3 5 3 2 3 2 6 4 7 7 15 19 21 21 19 18 17 17 14 19 20 17 18 21 20 19 20 21
1 3 4 5 8 7 5 3 4 5 5 3 3 0 0 1 0 1 3 1 1 1 0 1 1 1 1 1 1 1 2 2 2 2 2 1 1 1 2 3 3 0 2 1 3 1 1 3 3 4 3 5 7 7 9 8 8 6 7 6 6 3 3 1 1 3 7 10 12 12 15 23 25 25 22 20 19 15 18 21 21 20 20 20 20 20 21 21
2 3 2 2 2 8 5 4 3 2 2 1 1 0 4 3 1 1 1 0 0 0 0 0 0 1 1 1 2 3 1 1 2 1 1 2 0 0 4 4 4 3 4 1 2 1 1 2 2 1 4 5 7 11 13 8 11 13 11 6 6 4 6 3 3 7 5 9 17 11 14 18 25 25 22 22 16 17 20 21 20 21 21 21 21 22 24 21
4 1 1 2 2 0 1 3 4 3 2 2 1 0 1 1 0 0 0 1 1 1 0 0 1 1 0 0 1 1 4 6 2 1 1 1 2 1 1 3 3 6 5 1 3 1 0 1 2 3 7 6 13 15 12 9 8 9 9 7 4 6 5 6 6 8 5 5 15 20 22 22 23 22 24 18 16 21 22 22 23 24 21 21 23 23 20 20
3 3 2 1 2 0 1 1 2 4 5 3 2 0 1 0 2 0 0 0 0 0 0 1 1 2 1 0 1 1 3 4 3 1 2 1 3 1 2 1 1 4 2 1 1 1 0 4 2 4 5 10 14 13 8 7 7 9 8 8 5 6 7 5 9 9 9 11 15 19 23 25 22 20 16 17 20 20 18 18 19 21 24 24 22 21 21 24
2 3 1 2 4 3 0 1 1 1 2 1 2 1 0 1 1 1 0 1 0 0 1 0 3 3 1 1 2 1 1 1 2 4 1 1 3 2 2 1 0 2 2 1 0 1 1 3 3 1 2 7 12 6 4 6 8 9 8 6 2 3 7 8 4 6 9 14 15 19 21 21 14 11 14 17 18 18 18 21 22 21 23 24 22 23 24 24
1 1 3 8 4 2 1 0 1 1 0 3 2 0 1 1 1 1 1 1 1 0 2 1 3 4 2 2 2 1 2 1 2 5 3 2 3 1 1 1 1 1 1 0 0 1 1 3 1 1 3 7 5 5 11 11 3 5 10 7 4 4 4 2 2 5 8 16 21 20 17 13 11 10 15 17 18 20 22 23 23 22 23 20 22 24 24 25
1 0 0 2 5 0 1 0 1 0 1 1 1 1 1 1 0 1 0 0 1 2 1 1 1 1 2 2 1 0 1 2 3 2 1 3 3 1 0 1 1 1 1 1 1 0 1 0 3 2 5 5 5 7 11 16 8 6 4 6 4 2 2 4 7 10 12 14 15 14 14 13 14 15 19 19 20 21 21 20 22 24 20 19 21 21 22 23
Wind_Direction
354 355 357 354 354 356 350 345 341 340 338 335 333 330 332 337 338 344 341 346 345 345 344 350 349 342 333 324 324 350 329 309 33 51 57 94 288 285 299 296 300 310 320 309 295 278 272 228 232 179 242 232 128 298 89 226 24 314 242 232 331 36 60 31 29 24 341 311 7 352 41 11 20 353 13 53 64 79 64 55 60 60 60 51 46 35 33 27
357 356 355 353 354 351 347 343 340 339 331 328 327 326 336 340 341 341 341 341 347 336 338 348 351 334 323 321 331 335 330 298 53 58 62 21 279 281 315 313 312 313 326 304 322 345 328 12 19 254 252 212 71 116 213 91 253 253 286 286 59 23 78 42 15 31 347 14 328 357 49 26 43 320 347 69 53 59 58 57 46 60 54 51 43 37 37 36
358 355 352 354 351 345 343 342 341 333 327 327 326 332 338 339 336 338 340 344 343 337 334 338 344 324 314 320 327 316 313 310 12 32 29 351 346 337 332 322 313 304 295 305 308 320 329 332 330 298 243 211 175 91 269 82 342 260 337 27 76 76 93 40 31 24 14 360 348 339 43 65 38 13 315 91 79 57 53 44 46 49 55 49 44 40 41 43
356 354 353 352 343 339 343 343 337 329 327 327 325 332 338 332 334 339 332 342 338 337 324 337 328 324 313 311 319 312 269 278 45 353 11 356 349 339 330 322 309 297 281 267 281 299 311 293 281 267 308 325 97 212 186 72 266 9 357 38 34 326 58 35 41 27 5 6 332 330 246 97 51 38 5 131 80 65 75 54 56 58 59 57 50 49 46 45
352 353 352 343 338 338 343 342 332 326 327 324 329 336 336 335 338 336 336 331 327 325 330 331 334 339 331 308 322 278 24 260 34 358 0 355 344 330 320 311 295 291 295 285 295 265 259 293 291 340 318 95 6 96 35 46 33 0 45 51 17 357 71 35 43 49 6 319 316 34 45 87 91 47 40 53 90 82 78 67 68 74 63 54 56 57 52 53
351 351 345 338 336 338 344 339 326 324 323 323 335 339 339 341 340 336 332 323 318 326 325 328 333 346 340 348 297 298 266 53 333 1 358 344 334 320 307 300 284 275 281 280 271 290 264 226 246 222 276 54 27 39 53 22 32 120 68 59 30 26 55 13 40 38 353 357 35 55 78 77 73 82 62 68 84 99 89 95 85 71 68 71 68 58 58 54
350 344 335 337 336 340 341 334 322 321 322 332 340 338 339 343 340 332 326 324 325 324 323 326 328 335 350 339 178 293 60 81 2 348 1 337 324 306 296 277 278 266 241 306 350 318 4 296 225 50 125 126 51 69 26 332 179 13 91 77 49 45 51 48 35 20 351 350 56 70 246 111 98 82 92 93 98 104 105 97 85 82 79 76 73 62 59 59
344 335 333 337 339 340 341 322 319 319 329 339 336 333 336 339 335 330 328 327 326 323 320 325 329 325 344 269 307 115 44 16 342 348 346 342 325 321 316 266 260 284 31 6 349 10 311 16 33 336 41 29 69 59 313 303 25 77 108 81 94 46 80 80 75 207 326 227 212 231 78 78 92 106 114 110 122 124 120 118 111 100 88 76 69 66 62 60
332 332 336 339 340 342 326 318 317 324 339 336 337 338 336 337 334 330 325 325 323 321 322 328 335 354 191 260 239 328 28 343 346 339 350 342 337 328 351 3 347 317 46 20 10 3 330 25 46 15 77 80 328 81 32 347 67 12 54 70 112 75 46 287 172 96 316 290 341 103 102 106 112 112 94 116 123 122 124 117 110 104 95 80 69 66 66 66
333 341 347 347 341 328 311 311 312 330 339 338 340 337 329 334 333 331 314 317 320 319 321 321 340 315 196 222 238 64 22 323 347 342 349 340 347 344 7 351 334 354 36 30 31 20 24 8 9 15 84 68 35 45 304 18 100 295 62 279 97 62 180 127 45 89 199 47 338 130 140 147 162 184 108 123 128 130 122 115 111 103 92 86 82 74 69 64
344 349 346 334 318 309 307 317 323 334 343 342 337 329 329 328 328 320 320 311 314 314 315 324 340 340 45 34 66 68 346 328 345 350 340 344 354 3 352 339 345 19 27 42 41 24 14 10 349 340 358 69 123 46 43 158 257 76 127 346 263 141 270 200 107 116 213 46 339 77 107 85 56 55 125 141 141 131 119 113 108 102 96 90 85 80 70 62
347 342 331 321 315 313 325 338 336 340 339 336 332 329 327 323 325 322 317 314 301 301 312 326 333 315 55 56 60 15 330 359 316 3 348 325 2 331 327 340 8 21 29 36 35 28 4 355 300 33 69 310 111 179 90 181 216 164 201 195 215 177 242 40 38 112 38 75 5 327 107 67 41 98 128 141 139 135 128 118 113 101 98 104 101 90 69 65
339 336 325 316 320 329 334 343 341 342 335 335 334 326 323 326 326 326 319 312 320 311 317 335 326 295 48 57 51 15 326 341 333 8 1 333 286 6 279 0 23 34 25 37 31 3 6 343 18 67 339 282 70 107 75 333 224 350 209 250 142 209 232 99 51 14 142 123 254 124 257 129 120 120 133 144 147 143 133 126 122 115 105 103 105 91 86 63
336 328 315 318 334 340 342 344 342 333 328 323 326 325 325 322 318 316 320 287 299 301 317 328 321 290 67 91 127 188 262 325 340 12 9 345 348 80 29 39 36 30 23 37 22 327 346 354 35 109 43 31 103 222 223 189 210 250 161 199 60 359 123 85 67 358 97 184 173 161 230 154 143 145 124 117 157 158 133 128 114 109 119 115 89 89 87 81
326 321 322 337 341 344 342 341 337 330 325 320 326 328 324 315 300 302 292 295 272 278 308 306 233 266 63 173 191 203 198 239 13 7 14 -0 353 37 18 356 25 25 27 21 28 335 306 276 227 19 50 43 67 121 256 173 132 4 45 2 9 44 300 123 47 71 48 20 311 123 241 162 165 150 161 146 146 151 132 128 116 115 107 88 67 79 76 64
326 324 331 344 343 341 344 340 333 329 323 323 329 326 319 286 287 284 280 258 293 298 242 338 334 7 83 60 19 171 6 16 3 350 7 22 358 2 323 303 271 254 237 172 253 201 270 337 70 312 19 180 240 249 53 38 23 31 38 342 7 4 313 330 162 47 52 27 342 236 241 135 182 163 154 168 155 160 139 136 129 121 95 70 81 66 58 66
325 330 344 345 344 339 334 331 329 326 328 322 327 306 294 286 274 262 268 323 281 274 23 24 318 359 61 326 239 359 -0 2 336 336 352 24 342 331 326 330 314 294 197 247 219 237 221 186 170 33 40 37 340 339 105 38 357 7 359 10 344 11 318 318 294 124 353 52 334 270 253 170 120 156 154 169 173 162 150 145 138 127 102 101 83 62 51 45
333 344 349 346 341 332 323 326 327 326 321 317 314 304 314 327 311 307 295 221 243 59 260 35 46 21 124 35 15 338 329 323 348 303 346 349 339 316 320 298 285 271 272 244 23 323 336 46 357 81 31 28 23 19 64 43 342 330 350 349 332 329 297 300 328 327 341 344 308 274 239 160 155 151 164 164 177 180 155 147 147 114 110 101 82 54 42 38
346 351 349 345 335 327 327 322 321 319 321 308 295 269 256 276 285 54 34 10 53 25 23 354 4 60 343 335 342 334 323 305 289 350 358 0 333 283 268 245 249 299 164 62 24 8 350 62 20 37 24 7 26 29 38 357 331 331 324 277 271 311 315 315 316 357 16 342 318 292 244 174 167 175 164 169 180 178 154 156 150 141 123 87 55 51 27 15
352 351 345 340 332 327 326 322 319 316 331 321 233 266 253 206 91 20 6 43 61 74 101 332 17 73 68 2 350 325 289 259 322 21 3 352 324 319 304 299 286 63 18 30 14 34 39 65 35 34 342 1 13 11 9 325 322 302 297 285 311 299 293 307 308 29 349 1 268 305 306 163 182 185 175 167 164 163 173 174 135 110 83 63 43 35 14 12
352 346 341 332 325 325 323 320 315 312 280 260 292 300 330 3 41 75 48 67 46 33 69 98 315 66 26 298 343 357 7 336 41 19 14 318 270 303 355 328 45 27 52 187 106 53 53 65 29 29 7 355 339 321 319 306 270 265 275 285 312 329 305 317 300 31 316 88 284 296 279 233 200 176 167 161 166 192 175 155 145 115 74 42 47 26 3 15
347 342 333 326 323 325 320 320 315 318 232 244 35 58 66 61 0 33 299 85 34 323 44 45 31 55 156 228 333 335 212 314 1 11 357 353 17 333 329 33 32 53 353 137 291 54 41 56 17 7 353 331 279 280 272 235 253 258 253 296 311 319 310 284 305 27 6 96 265 284 293 255 209 164 167 170 185 146 81 85 87 56 37 42 10 358 355 349
340 332 326 315 324 319 321 317 326 320 2 17 55 74 58 26 346 231 273 123 93 262 63 14 33 33 15 32 32 326 53 34 334 7 358 343 1 54 314 26 52 29 38 25 42 48 55 34 8 352 326 309 301 202 352 337 236 246 334 18 321 310 1 320 301 336 305 298 286 286 289 282 70 152 173 174 174 125 133 113 93 66 99 11 346 332 343 346
332 324 313 317 315 321 318 320 303 333 45 67 66 64 60 352 322 295 239 43 124 39 91 38 45 33 40 352 6 338 38 21 5 348 3 358 21 295 325 15 36 55 41 46 76 76 90 15 353 314 251 247 302 15 29 4 337 69 26 9 334 332 311 257 299 316 305 283 260 264 303 278 171 208 189 161 123 134 145 169 165 188 173 165 267 305 7 345
319 314 311 311 320 322 314 319 26 37 257 82 69 101 65 5 292 10 289 74 111 79 3 278 233 86 332 225 270 293 26 183 29 1 359 20 346 324 55 227 293 36 22 322 130 92 90 96 293 298 312 308 290 30 33 9 322 326 139 5 322 318 311 304 298 322 321 298 159 171 335 270 183 217 177 148 139 186 170 193 185 195 152 70 333 14 8 344
315 314 313 316 320 325 309 3 84 263 354 52 40 70 41 356 358 312 334 234 90 322 183 31 235 359 235 346 337 111 184 67 312 20 9 17 188 163 263 60 17 83 17 26 71 98 26 172 253 294 275 285 21 88 67 26 324 323 290 346 325 304 298 292 298 346 294 301 314 120 239 277 302 309 163 154 168 180 166 200 202 162 53 14 30 358 353 2
316 312 317 318 319 324 328 95 308 201 233 107 57 351 19 310 16 327 318 222 48 345 351 332 330 67 329 342 330 157 27 351 319 19 9 35 17 160 12 355 112 110 123 25 50 327 326 24 354 345 357 32 6 3 37 91 338 275 336 333 311 304 300 289 288 258 253 272 283 189 303 292 289 347 112 142 162 174 176 190 193 123 19 40 1 6 13 355
310 310 314 321 317 350 25 186 232 65 50 34 339 12 317 322 234 267 26 84 341 317 350 334 53 297 354 305 16 58 166 269 304 6 357 336 300 240 108 5 55 293 35 144 97 264 68 348 27 350 342 31 359 323 338 69 183 252 304 316 304 295 289 284 273 261 258 325 309 60 328 313 298 330 108 149 201 162 187 196 130 38 38 354 12 13 354 355
329 322 320 314 318 304 305 14 357 102 35 339 320 291 35 295 245 306 248 120 254 21 196 50 177 4 343 315 45 26 105 10 18 294 326 168 63 225 29 19 320 304 202 228 136 215 27 35 6 335 351 353 304 304 287 144 289 259 294 298 284 282 275 261 256 259 275 312 274 40 2 355 302 307 172 354 222 41 66 61 38 39 7 7 7 359 359 357
9 352 318 305 306 297 2 77 52 355 338 351 302 270 260 245 238 21 290 317 8 0 25 315 14 301 321 333 79 18 12 18 48 313 17 50 13 19 103 32 333 355 27 21 58 30 119 83 59 124 12 292 279 283 275 248 233 272 311 301 313 304 292 234 197 190 317 218 232 15 15 -0 302 315 42 131 160 172 322 356 17 358 2 341 346 8 345 347
38 31 22 325 49 43 324 152 94 26 327 302 310 301 240 241 167 268 96 232 28 23 243 33 2 332 10 31 344 352 356 0 358 5 358 0 13 27 11 44 341 284 53 67 21 247 83 17 60 323 283 276 232 294 217 211 251 7 302 340 323 291 314 278 350 215 238 279 331 9 344 332 283 299 68 141 198 172 117 19 299 327 326 302 338 353 352 353
36 44 38 58 233 272 349 119 46 340 314 305 294 240 233 11 5 59 112 20 59 348 40 318 11 358 347 333 40 351 354 319 13 8 2 355 35 27 24 46 344 358 81 36 340 73 261 208 337 184 243 3 340 334 32 255 304 297 347 346 354 327 350 335 339 343 307 268 345 353 334 319 296 154 268 163 154 187 141 215 224 259 330 358 357 349 345 347
334 9 46 49 332 58 90 76 199 191 299 287 293 251 38 196 62 340 307 348 115 337 351 174 310 333 308 300 29 338 158 21 319 351 342 13 78 67 78 61 354 80 263 335 320 336 276 18 263 238 333 350 311 355 337 359 358 351 12 3 7 349 358 310 311 265 286 287 325 324 322 273 282 138 249 116 166 170 178 220 248 8 352 348 360 346 337 327
6 330 83 14 79 100 85 137 153 195 192 193 314 283 40 55 86 151 45 35 25 183 259 0 320 292 2 49 330 357 357 181 352 331 358 2 46 32 14 45 28 354 344 310 320 353 315 332 180 348 296 298 13 63 252 232 314 327 45 63 45 274 334 300 302 318 300 295 312 305 308 227 338 247 207 141 196 213 182 216 344 3 357 351 337 338 329 329
326 307 141 179 156 100 114 107 183 221 277 292 267 222 87 111 96 3 57 359 17 328 7 159 326 324 125 82 92 57 92 319 49 340 36 12 11 42 337 351 358 19 268 301 78 213 310 248 172 41 334 288 44 77 175 299 242 229 348 128 52 279 324 240 272 310 296 303 306 304 256 338 308 116 154 217 244 307 336 350 3 353 348 344 331 334 333 336
306 182 222 60 24 51 102 74 275 210 284 285 69 49 58 338 49 7 36 222 311 357 310 295 260 309 336 143 257 124 250 152 312 34 122 64 307 80 281 53 6 2 35 47 355 340 334 286 183 71 8 43 55 325 313 134 49 293 10 21 255 259 175 262 284 266 299 291 270 326 293 312 326 289 207 228 290 329 342 348 343 339 340 339 344 342 336 335
302 308 41 28 45 27 100 120 185 279 258 325 72 68 37 68 316 314 1 8 11 284 279 23 340 43 11 300 85 340 300 127 244 139 347 165 99 15 9 90 298 40 48 116 334 132 103 280 280 187 261 254 275 296 66 346 297 334 10 307 295 243 156 147 287 310 274 293 289 310 299 314 328 320 173 303 337 331 347 341 342 339 344 349 341 339 336 336
309 38 251 52 351 35 116 155 219 223 316 77 59 96 333 94 22 39 298 272 239 217 308 8 272 188 2 343 321 355 323 54 343 358 336 102 320 200 1 10 63 44 42 67 101 289 97 307 305 170 109 187 354 295 32 340 324 143 174 214 59 344 345 298 6 311 326 298 295 296 295 289 286 286 338 330 326 353 346 344 337 336 340 337 336 333 332 334
298 266 41 356 347 21 157 160 209 263 99 70 99 108 22 81 18 6 2 305 220 200 16 271 260 6 152 7 294 234 359 11 334 348 348 16 339 9 99 269 94 66 319 41 275 334 303 204 283 255 334 153 219 120 245 193 323 57 132 97 53 123 296 334 245 269 236 286 321 300 309 300 251 294 335 317 3 348 348 339 332 336 340 339 334 334 335 333
294 240 54 304 330 302 160 177 6 43 57 71 71 64 221 104 92 17 54 328 38 339 43 338 45 321 15 37 77 340 3 267 340 298 320 355 304 35 52 21 7 316 356 301 279 338 300 284 270 281 333 354 301 146 259 172 132 209 294 4 16 321 200 203 213 164 212 248 294 309 305 282 304 331 322 350 353 351 347 336 333 336 338 336 333 332 331 331
90 336 288 308 336 322 292 37 43 28 76 90 56 95 44 105 160 75 35 13 307 102 34 36 353 24 353 329 2 143 307 308 312 302 346 16 48 328 55 27 353 314 324 291 212 313 281 279 269 304 314 296 236 43 315 12 72 125 185 207 161 212 347 2 299 95 43 70 283 315 288 291 311 290 349 357 351 342 342 335 336 338 332 330 331 334 336 334
290 64 313 331 336 338 71 53 16 3 58 50 59 344 115 278 112 119 294 34 17 345 84 36 139 338 11 329 12 334 341 288 311 323 59 345 55 30 153 270 352 285 354 340 121 41 71 274 277 284 266 275 98 344 347 68 75 103 85 247 140 204 83 279 297 284 350 267 294 261 281 282 296 341 8 352 337 338 338 341 340 335 331 331 334 335 335 335
14 115 233 290 353 353 59 76 52 45 64 97 223 72 352 96 67 259 10 287 344 287 270 65 10 353 87 19 344 316 47 271 331 298 28 13 94 27 153 303 330 235 187 329 86 92 125 245 269 257 253 76 3 356 100 35 77 54 18 96 61 216 174 190 225 310 271 296 298 291 263 283 330 357 342 336 336 334 334 341 342 336 334 334 334 336 336 333
97 60 3 352 32 142 66 98 98 78 108 161 101 115 346 45 32 71 47 50 3 4 2 8 164 76 281 37 283 302 11 342 78 298 4 325 140 254 150 262 28 10 355 122 161 344 9 254 332 306 320 267 182 199 224 278 43 192 184 194 34 131 260 240 243 116 270 237 262 295 289 293 301 318 318 329 330 328 333 348 345 335 333 331 332 331 332 331
103 242 86 10 15 45 89 286 116 119 100 120 102 50 76 70 49 73 342 46 349 38 352 38 68 323 289 104 270 286 200 149 294 129 189 345 107 195 112 218 17 327 78 43 275 315 205 267 332 318 329 331 330 331 325 321 311 301 131 137 153 147 198 17 299 284 282 294 298 279 280 284 299 307 318 326 330 329 342 343 336 332 330 331 332 333 333 332
315 72 320 28 16 44 65 31 66 106 122 133 70 336 52 92 119 78 317 101 11 238 260 256 185 123 249 235 268 227 209 124 167 303 358 330 93 178 164 198 232 258 131 111 288 290 252 307 255 251 212 238 262 275 285 313 314 290 265 161 207 160 242 152 244 252 281 305 293 261 262 291 302 310 319 327 330 339 342 340 335 334 336 335 334 332 329 329
54 81 349 20 9 49 78 23 43 32 101 283 80 52 42 37 135 117 289 342 44 355 281 219 266 332 344 330 332 313 283 232 175 16 233 260 349 142 189 212 195 199 159 164 187 153 261 278 280 351 277 254 276 283 287 292 277 279 289 277 176 181 158 148 173 246 306 316 283 287 289 299 301 309 317 323 333 341 336 335 332 333 335 335 333 329 328 329
73 234 116 221 122 163 19 9 14 74 30 67 109 245 83 122 69 12 45 93 173 166 62 271 323 113 317 78 292 297 5 317 172 244 16 214 297 183 215 207 228 162 162 177 181 63 116 271 247 55 282 291 287 283 278 272 260 271 278 288 254 180 160 170 244 256 294 244 282 303 307 300 301 310 315 325 347 339 337 336 335 332 330 334 333 330 330 335
78 113 120 241 93 283 7 227 317 82 69 58 120 70 118 70 99 354 347 313 217 201 164 14 53 36 14 352 323 299 353 354 336 200 188 317 239 302 273 208 158 127 218 172 114 140 62 235 253 212 271 282 280 276 270 254 272 279 274 268 270 160 188 209 255 264 254 268 281 293 298 298 301 308 320 338 340 336 331 331 331 330 332 332 331 332 336 338
181 149 102 25 88 107 44 309 30 307 68 244 98 322 18 16 99 173 179 19 28 110 247 348 11 346 329 324 315 300 312 220 229 265 229 112 289 160 266 108 58 208 218 173 179 230 122 288 79 281 285 284 287 248 270 308 303 296 299 306 282 207 203 215 259 296 315 292 291 296 297 294 305 319 333 334 332 326 327 333 334 333 332 334 337 339 340 338
98 4 133 126 73 3 308 83 348 348 108 355 50 287 228 53 82 7 90 339 114 26 24 5 341 312 183 250 252 263 67 270 265 241 262 166 240 158 174 302 52 254 130 130 41 279 123 281 78 193 305 301 300 343 324 309 286 275 283 282 228 238 282 350 323 283 303 304 307 306 301 298 312 335 330 327 324 329 333 335 335 332 332 337 341 340 338 334
90 129 143 106 88 87 28 13 277 24 46 288 28 35 47 81 81 320 123 73 51 42 45 0 328 296 258 186 270 319 308 274 278 315 286 309 319 18 26 8 352 227 270 129 173 153 123 303 314 358 325 268 307 334 319 307 302 304 272 235 233 326 359 322 312 314 300 304 301 305 295 308 329 339 329 327 334 334 335 336 332 329 333 339 336 335 333 331